Showing default

QIANFAN-61, 62791

Orbit data source: Space-Track

QIANFAN-61, 62791 is a Chinese payload satellite in LEO that was launched on Thu, 23 Jan 2025 UTC via a CHANG ZHENG 6A launch vehicle from the Taiyaun Space Center, China (TSC). Payload-class satellites include a variety of spacecraft equipped with specific instruments for various scientific and technological missions. These include communications satellites like Starlink; space stations such as the ISS; scientific satellites like the Hubble; Earth observation satellites from companies like Planet Labs, Umbra, and HawkEye 360; GPS; miniature CubeSats for education and research; and military/defense satellites.

Loading next visibility...
Identifier
62791, 2025-016G
Orbit
LEO
Country
Flag of CNCN / PRC
Related business
Manufacturer
SECM
Mission
Operational Commercial Communications
Bus & Motor
QIANFAN, Unknown motor
Mass
267 kg wet, ~267 kg dry
Launch date (UTC)
2025-01-23 (9 months ago)
Launch vehicle
CHANG ZHENG 6A
Launch site
Taiyaun Space Center, China (TSC)
Object type
Payload
Rocket body
Debris
Shape & HBR
Box + 1 Pan, 1.4 m
Radar Cross Section
13.200 m², Large (>1 m²)

Expand to show TLE details & history
Last TLE update: 6 hours ago

TLE from 6 hours ago
0 QIANFAN-61
1 62791U 25016G   25295.48609751  .00000064  00000-0  80615-4 0  9996
2 62791  88.9786 108.5082 0016080 127.1981 233.0641 13.50975426 40321
Epoch: 2025-10-22T11:39Z
TLE epoch observation values (Epoch: 2025-10-22T11:39:58.824Z)
Latitude
-0.00001°
Longitude
-97.64592°
Altitude
1,078.835 km
Speed
7.309 km/s
True Right ascension
07h 14m 01s
True Declination
0° 00' 00"
Sunlit
Object was in daylight at epoch
Visualization orbit readout
Latitude
Unknown
Longitude
Unknown
Altitude
Unknown
Speed
Unknown
Apparent Right ascension
Unknown
Apparent Declination
Unknown
Sunlit
N/A
Visualization observer readout
Local Sidereal Time
12:29:12
Azimuth
Unknown
Elevation
Unknown
Doppler factor
Unknown
Orbital elements
Apogee altitude
1,077.693 km
Perigee altitude
1,053.753 km
Semi-major axis
7,443.86 km
Eccentricity
0.00161
Inclination
88.9786°
RAAN
108.5082°
Arg. of periapsis
127.1981°
True anomaly
232.91699°
Mean anomaly
233.0641°
Eccentric anomaly
232.99053°
Mean motion
3.37945 °/min
Orbital period
106.53 mins
BSTAR
0.000080615
Loading maneuver chart data...
Computing Atmospheric mass density...
Loading historical data...
Loading historical data...
Loading historical data...
Loading historical data...
Loading historical data...
Loading historical data...
Loading historical data...

Documentation

Showing up to 5 results
|